TimeCDT,TemperatureF,Dew PointF,Humidity,Sea Level PressureIn,VisibilityMPH,Wind Direction,Wind SpeedMPH,Gust SpeedMPH,PrecipitationIn,Events,Conditions,WindDirDegrees,DateUTC
12:14 AM,44.6,42.8,93,29.75,7.0,ESE,11.5,-,0.08,Rain,Heavy Rain,110,2013-04-08 05:14:00
12:34 AM,44.6,42.8,93,29.75,7.0,ESE,11.5,-,0.13,Rain,Rain,120,2013-04-08 05:34:00
12:54 AM,44.6,42.8,93,29.74,5.0,ESE,9.2,-,0.20,Rain,Rain,110,2013-04-08 05:54:00
1:14 AM,44.6,42.8,93,29.71,7.0,East,10.4,-,0.03,Rain,Light Rain,90,2013-04-08 06:14:00
1:34 AM,44.6,42.8,93,29.71,7.0,East,9.2,-,0.04,Rain,Light Rain,90,2013-04-08 06:34:00
1:54 AM,44.6,42.8,93,29.70,7.0,East,11.5,-,0.04,,Light Drizzle,100,2013-04-08 06:54:00
2:14 AM,44.6,42.8,93,29.69,7.0,ESE,12.7,-,N/A,,Overcast,120,2013-04-08 07:14:00
2:34 AM,46.4,42.8,87,29.67,7.0,ESE,15.0,-,N/A,Rain,Light Rain,110,2013-04-08 07:34:00
2:54 AM,44.6,41.0,87,29.67,10.0,ESE,12.7,-,N/A,,Overcast,110,2013-04-08 07:54:00
3:14 AM,44.6,41.0,87,29.66,10.0,ESE,12.7,21.9,N/A,,Mostly Cloudy,120,2013-04-08 08:14:00
3:34 AM,44.6,41.0,87,29.66,7.0,SE,10.4,-,N/A,,Mostly Cloudy,130,2013-04-08 08:34:00
3:54 AM,46.4,42.8,87,29.66,7.0,ESE,6.9,-,N/A,,Overcast,120,2013-04-08 08:54:00
4:14 AM,44.6,42.8,93,29.66,7.0,Calm,Calm,-,N/A,,Overcast,0,2013-04-08 09:14:00
4:34 AM,44.6,42.8,93,29.65,5.0,Calm,Calm,-,0.03,Rain,Rain,0,2013-04-08 09:34:00
4:54 AM,44.6,42.8,93,29.66,4.0,Calm,Calm,-,0.03,,Light Drizzle,0,2013-04-08 09:54:00
5:14 AM,42.8,41.0,93,29.66,4.0,Calm,Calm,-,N/A,,Scattered Clouds,0,2013-04-08 10:14:00
5:34 AM,42.8,42.8,100,29.65,4.0,NE,4.6,-,N/A,,Mostly Cloudy,50,2013-04-08 10:34:00
5:54 AM,42.8,42.8,100,29.66,4.0,ENE,4.6,-,N/A,,Overcast,60,2013-04-08 10:54:00
6:14 AM,42.8,41.0,93,29.67,4.0,ENE,5.8,-,N/A,,Mostly Cloudy,60,2013-04-08 11:14:00
6:34 AM,42.8,41.0,93,29.67,4.0,ENE,8.1,-,N/A,,Clear,70,2013-04-08 11:34:00
6:54 AM,41.0,39.2,93,29.67,3.0,East,5.8,-,N/A,,Scattered Clouds,90,2013-04-08 11:54:00
7:14 AM,41.0,39.2,93,29.68,2.0,East,3.5,-,N/A,,Mostly Cloudy,90,2013-04-08 12:14:00
7:34 AM,42.8,41.0,93,29.70,2.0,East,3.5,-,N/A,,Mostly Cloudy,80,2013-04-08 12:34:00
7:54 AM,42.8,41.0,93,29.70,2.0,East,3.5,-,N/A,,Overcast,80,2013-04-08 12:54:00
8:14 AM,42.8,42.8,100,29.70,1.5,East,4.6,-,N/A,,Overcast,80,2013-04-08 13:14:00
8:34 AM,44.6,42.8,93,29.70,1.2,East,4.6,-,N/A,,Overcast,80,2013-04-08 13:34:00
8:54 AM,44.6,42.8,93,29.70,2.0,East,6.9,-,N/A,,Overcast,80,2013-04-08 13:54:00
9:14 AM,44.6,42.8,93,29.70,2.5,East,5.8,-,N/A,,Overcast,90,2013-04-08 14:14:00
9:34 AM,44.6,42.8,93,29.71,3.0,East,4.6,-,N/A,,Overcast,80,2013-04-08 14:34:00
9:54 AM,44.6,42.8,93,29.72,3.0,NE,4.6,-,N/A,,Overcast,40,2013-04-08 14:54:00
10:14 AM,44.6,42.8,93,29.72,3.0,NE,4.6,-,N/A,,Overcast,50,2013-04-08 15:14:00
10:34 AM,46.4,44.6,93,29.73,3.0,East,3.5,-,N/A,,Overcast,90,2013-04-08 15:34:00
10:54 AM,46.4,44.6,93,29.74,3.0,Calm,Calm,-,N/A,,Overcast,0,2013-04-08 15:54:00
11:14 AM,46.4,44.6,93,29.74,4.0,ENE,3.5,-,N/A,,Overcast,60,2013-04-08 16:14:00
11:34 AM,48.2,46.4,93,29.75,4.0,Calm,Calm,-,N/A,,Overcast,0,2013-04-08 16:34:00
11:54 AM,50.0,46.4,87,29.76,5.0,Calm,Calm,-,N/A,,Mostly Cloudy,0,2013-04-08 16:54:00
12:14 PM,51.8,46.4,82,29.76,5.0,Calm,Calm,-,N/A,,Haze,0,2013-04-08 17:14:00
12:34 PM,51.8,46.4,82,29.75,5.0,ENE,3.5,-,N/A,,Haze,60,2013-04-08 17:34:00
12:54 PM,51.8,46.4,82,29.76,5.0,Calm,Calm,-,N/A,,Haze,0,2013-04-08 17:54:00
1:14 PM,53.6,46.4,77,29.76,7.0,NNE,6.9,-,N/A,,Mostly Cloudy,20,2013-04-08 18:14:00
1:34 PM,53.6,46.4,77,29.76,7.0,North,3.5,-,N/A,,Scattered Clouds,360,2013-04-08 18:34:00
1:54 PM,53.6,46.4,77,29.77,7.0,North,4.6,-,N/A,,Mostly Cloudy,350,2013-04-08 18:54:00
2:14 PM,53.6,46.4,77,29.77,7.0,NNE,6.9,-,N/A,,Mostly Cloudy,20,2013-04-08 19:14:00
2:34 PM,53.6,46.4,77,29.78,7.0,NE,5.8,-,N/A,,Mostly Cloudy,40,2013-04-08 19:34:00
2:54 PM,53.6,46.4,77,29.78,10.0,NNE,8.1,-,N/A,,Mostly Cloudy,30,2013-04-08 19:54:00
3:14 PM,55.4,46.4,72,29.79,7.0,NNE,8.1,-,N/A,,Mostly Cloudy,30,2013-04-08 20:14:00
3:34 PM,53.6,48.2,82,29.79,7.0,ENE,10.4,-,N/A,,Mostly Cloudy,60,2013-04-08 20:34:00
3:54 PM,53.6,48.2,82,29.79,7.0,ENE,10.4,-,N/A,,Mostly Cloudy,60,2013-04-08 20:54:00
4:14 PM,53.6,46.4,77,29.80,7.0,ENE,5.8,-,N/A,,Mostly Cloudy,70,2013-04-08 21:14:00
4:34 PM,53.6,46.4,77,29.81,7.0,East,3.5,-,N/A,,Mostly Cloudy,80,2013-04-08 21:34:00
4:54 PM,53.6,46.4,77,29.81,7.0,NNE,6.9,-,N/A,,Mostly Cloudy,20,2013-04-08 21:54:00
5:14 PM,53.6,48.2,82,29.81,7.0,NE,5.8,-,N/A,,Mostly Cloudy,50,2013-04-08 22:14:00
5:34 PM,51.8,46.4,82,29.82,7.0,NNE,10.4,-,N/A,,Mostly Cloudy,20,2013-04-08 22:34:00
5:54 PM,51.8,46.4,82,29.84,7.0,NNE,8.1,-,N/A,,Mostly Cloudy,20,2013-04-08 22:54:00
6:14 PM,51.8,46.4,82,29.86,5.0,North,10.4,-,N/A,,Haze,10,2013-04-08 23:14:00
6:34 PM,50.0,44.6,82,29.87,5.0,North,10.4,-,N/A,,Haze,10,2013-04-08 23:34:00
6:54 PM,48.2,44.6,87,29.88,5.0,North,11.5,-,N/A,,Haze,10,2013-04-08 23:54:00
7:14 PM,48.2,44.6,87,29.90,5.0,North,9.2,-,N/A,,Haze,10,2013-04-09 00:14:00
7:34 PM,46.4,42.8,87,29.91,5.0,NNE,3.5,-,N/A,,Scattered Clouds,20,2013-04-09 00:34:00
7:54 PM,46.4,42.8,87,29.92,5.0,North,12.7,-,N/A,,Scattered Clouds,10,2013-04-09 00:54:00
8:14 PM,46.4,42.8,87,29.92,5.0,NNE,12.7,19.6,N/A,,Mostly Cloudy,20,2013-04-09 01:14:00
8:34 PM,44.6,42.8,93,29.93,5.0,NNE,11.5,-,N/A,,Mostly Cloudy,30,2013-04-09 01:34:00
8:54 PM,44.6,42.8,93,29.94,5.0,NNE,13.8,21.9,N/A,,Mostly Cloudy,30,2013-04-09 01:54:00
9:14 PM,44.6,41.0,87,29.96,5.0,NE,15.0,20.7,N/A,,Overcast,40,2013-04-09 02:14:00
9:34 PM,44.6,41.0,87,29.96,5.0,NNE,16.1,21.9,N/A,,Overcast,30,2013-04-09 02:34:00
9:54 PM,42.8,41.0,93,29.96,4.0,NE,12.7,-,N/A,,Overcast,40,2013-04-09 02:54:00
10:14 PM,42.8,39.2,87,29.96,4.0,NE,11.5,-,N/A,,Overcast,40,2013-04-09 03:14:00
10:34 PM,42.8,39.2,87,29.97,4.0,NE,13.8,20.7,N/A,,Overcast,50,2013-04-09 03:34:00
10:54 PM,42.8,39.2,87,29.97,4.0,NE,12.7,18.4,N/A,,Overcast,40,2013-04-09 03:54:00
11:14 PM,41.0,39.2,93,29.98,3.0,NE,12.7,19.6,N/A,,Overcast,50,2013-04-09 04:14:00
11:34 PM,41.0,39.2,93,30.00,2.5,ENE,9.2,-,N/A,,Overcast,60,2013-04-09 04:34:00
11:54 PM,41.0,39.2,93,29.99,2.0,ENE,13.8,-,N/A,,Overcast,70,2013-04-09 04:54:00